Regional Weather Roundup
Issued by NWS Newport/Morehead, NC

Current Version | Previous Version | Graphics & Text | Print | Product List | Glossary Off
Versions: 1 2 3 4 5 6 7 8 9 10 11 12 13 14 15 16 17 18 19 20 21 22 23 24 25 26 27 28 29 30 31 32 33 34 35 36 37 38 39 40 41 42 43 44 45 46 47 48 49 50

000
ASUS42 KMHX 230913
RWRMHX
WEATHER ROUNDUP FOR EASTERN NORTH CAROLINA
NATIONAL WEATHER SERVICE NEWPORT/MOREHEAD CITY NC
500 AM EDT MON APR 23 2018

NOTE: "FAIR" INDICATES FEW OR NO CLOUDS BELOW 12,000 FEET
WITH NO SIGNIFICANT WEATHER AND/OR OBSTRUCTIONS TO VISIBILITY

NCZ015>017-031-032-045>047-102-103-231000-
NORTH COAST

CITY           SKY/WX    TMP DP  RH WIND       PRES   REMARKS
EDENTON        FAIR      53  50  91 E6        30.36F
ELIZABETH CITY FAIR      54  50  86 E8        30.37S
KITTY HAWK     FAIR      53  49  86 E6        30.36S
MANTEO         FAIR      54  49  86 E7        30.37S

$$

NCZ045>047-081-094-103-104-231000-
CENTRAL COAST

CITY           SKY/WX    TMP DP  RH WIND       PRES   REMARKS
FRISCO         FAIR      59  50  72 E8        30.34S

$$

NCZ095-097-098-100-101-231000-
SOUTHERN COAST

CITY           SKY/WX    TMP DP  RH WIND       PRES   REMARKS
BEAUFORT       FAIR      63  53  70 E7        30.29F
CEDAR ISLAND   NOT AVBL
JACKSONVILLE   MOCLDY    61  53  75 NE8       30.28R
PINEY ISLAND   NOT AVBL
WILMINGTON     FAIR      62  51  67 E5        30.27R


$$

NCZ011>013-027>030-043-044-078>080-089-090>093-098-231000-
COASTAL PLAIN

CITY           SKY/WX    TMP DP  RH WIND       PRES   REMARKS
AHOSKIE        FAIR      47  46  96 CALM      30.35F
CLINTON        FAIR      57  52  82 E5        30.28F
ELIZABETHTOWN  FAIR      56  50  82 MISG      30.28R
GOLDSBORO      CLOUDY    54  50  88 E7        30.29R
GREENVILLE     FAIR      50  46  87 E5        30.33S
HAVELOCK       NOT AVBL
KENANSVILLE    FAIR      55  52  88 CALM      30.29S
KINSTON        FAIR      53  51  90 NE6       30.32S
NEW BERN       FAIR      55  54  96 NE6       30.32R
RICHLANDS      CLOUDY    56  53  90 N7        30.30R
ROCKY MOUNT    FAIR      50  46  86 NE6       30.33R
WASHINGTON     FAIR      49  47  93 E7        30.33S
WHITEVILLE     MOCLDY    56  52  84 CALM      30.26S

$$

AMZ130-135-150-152-154-156-158-170-250-252-270-ANZ085-086-088-633-658-670-231000-
MARINE OBSERVATIONS

STATION/POSITION TIME  TEMP    WIND        PRES    WAVE   SWELL
                       AIR SEA DIR/SP/G            HT/PER HT/PER
                 (UTC) (F)     (DEG/KT/KT) (MB)    (FT/S) (FT/S)
CHESAPEAKE LIGHT NOT AVBL
64 E VA BEACH    0850   53 49  100/ 10/ 10 1029.1    2/ 7   2/ 7
DUCK             0842   54 54   80/ 16/ 18 1028.0
2 E DUCK         0900      53                N/A     2/ 3
OREGON INLET     0842   53 58   50/  7/  9 1028.0
13E OREGON INLT  0848      51                N/A     2/ 5   2/ 5
HATTERAS CG      0842   60 62   80/  6/  8 1027.0
DIAMOND BUOY     0900   66 72  110/ 12/ 16 1027.4
CAPE LOOKOUT     NOT AVBL
BEAUFORT LAB     0842   63 63  100/  7/ 10 1025.9
30 SE NEW RVR IN 0808   66 65  100/ 16/ 19 1025.0
30 SE NEW RVR IN 0900      65                N/A     4/ 5
27 SE WRIGHTSVLE 0808   66 64  120/ 17/ 27 1024.0
5 SE WRIGHTSVLE  0808   63 60  110/ 12/ 16 1023.8
225 S CAPE HAT   0900   68 72  100/ 16/ 21 1024.3
41 SE CHARLESTON 0900   69 67  130/ 17/ 21 1021.5

$$



USA.gov is the U.S. government's official web portal to all federal, state and local government web resources and services.